Wind_Speed
2 5 7 9 5 4 6 5 4 1 1 2 3 5 11 7 5 8 8 7 7 8 9 11 9 12 16 21 30 32 32 34 32 29 27 27 30 30 30 29 30 30 30 29
5 5 6 8 7 6 4 5 3 2 3 2 3 8 10 6 4 3 6 7 6 7 8 11 7 4 6 14 20 26 31 32 33 33 28 24 24 29 30 32 31 33 33 32
6 2 10 7 4 7 2 6 5 3 1 3 4 7 6 3 3 6 6 3 5 5 6 7 14 16 12 4 8 15 21 27 31 31 27 23 20 23 25 29 29 31 31 33
3 2 8 7 5 5 5 5 6 6 4 3 3 4 5 3 3 6 7 7 6 6 5 6 12 18 19 17 10 1 10 16 22 25 28 28 24 23 25 23 23 27 30 32
5 7 8 5 5 6 4 6 6 4 4 4 3 2 6 3 4 5 7 6 7 6 5 7 12 18 21 21 21 16 10 1 9 16 22 27 26 23 25 24 25 26 28 28
3 1 3 6 4 3 10 7 7 4 3 1 3 4 6 3 4 3 2 4 5 6 6 9 17 24 27 27 27 23 20 17 8 3 11 19 21 23 22 21 21 23 25 27
2 1 1 4 8 5 3 6 2 2 2 5 2 2 7 1 4 5 6 4 4 4 6 7 13 20 26 28 27 27 25 24 18 12 4 3 10 13 16 17 19 20 22 24
7 4 8 3 6 9 7 6 5 7 4 2 1 6 4 1 2 5 2 2 5 7 6 7 13 19 25 27 28 26 26 26 22 19 14 8 4 4 7 9 12 14 17 20
6 4 1 2 2 6 6 5 5 7 3 3 4 5 4 4 5 4 4 6 7 6 6 7 16 23 26 28 29 28 28 28 26 22 19 16 13 11 10 9 9 11 12 15
7 4 1 1 2 2 5 8 4 2 4 3 3 4 5 8 10 6 5 7 6 6 7 7 15 19 23 24 25 26 27 27 25 24 23 20 18 15 13 12 12 12 13 14
5 4 0 4 6 8 3 3 4 5 4 6 3 6 6 16 13 10 8 6 6 6 6 5 10 18 21 23 25 26 27 27 26 24 22 20 19 17 16 15 15 15 15 15
5 5 4 7 2 1 0 6 6 5 5 1 3 5 1 13 10 9 8 7 6 6 5 6 10 15 20 21 22 23 24 25 25 24 24 24 23 24 24 23 21 19 19 18
8 3 3 4 3 2 5 5 4 5 4 7 6 5 4 8 7 6 8 7 6 6 6 5 9 13 15 17 19 20 20 21 20 20 20 20 20 21 22 23 24 25 25 23
4 4 9 13 4 7 6 6 5 5 4 5 7 6 4 7 9 7 6 6 6 6 5 4 6 9 9 11 13 14 15 16 17 17 17 18 20 20 21 22 23 24 24 25
4 6 4 3 3 4 5 9 11 11 15 9 13 11 21 17 11 10 7 6 6 6 5 4 5 6 6 7 9 10 11 13 13 14 15 16 17 17 18 20 21 22 23 24
2 3 3 4 2 4 2 5 15 19 6 1 6 5 5 10 6 7 8 8 7 6 6 5 5 6 5 4 6 9 12 14 15 16 17 18 20 21 22 23 24 24 24 25
2 5 3 4 5 4 5 12 11 7 4 12 10 7 6 6 11 13 11 11 10 7 6 6 6 5 4 6 8 10 12 13 15 17 19 21 23 25 26 27 29 29 28 28
3 3 2 2 5 9 5 2 4 7 7 6 5 7 13 12 6 6 8 10 9 8 7 5 4 2 3 6 8 10 12 15 18 20 23 25 27 28 30 31 31 32 32 30
5 4 3 4 2 5 2 5 7 9 10 10 8 7 5 6 5 1 4 4 7 6 6 5 3 1 3 6 9 12 14 16 18 20 23 26 27 29 31 33 33 33 33 33
4 3 4 2 3 7 4 0 3 3 4 6 12 12 10 7 5 4 8 6 7 6 4 4 0 2 5 7 10 12 15 17 19 20 23 25 25 26 28 26 28 28 27 30
5 3 7 4 3 7 6 5 4 6 6 2 5 9 9 5 3 5 9 6 5 7 7 4 3 4 5 7 9 12 14 15 17 20 22 24 26 25 25 27 27 26 27 29
6 7 4 3 3 8 8 3 11 5 2 4 5 5 7 8 7 7 6 5 4 6 6 2 5 5 5 7 8 10 13 16 19 21 22 22 23 24 23 22 23 22 26 26
4 5 6 7 6 2 6 1 4 4 6 5 7 7 7 8 5 5 3 1 1 2 4 4 4 5 5 5 9 13 16 18 21 22 23 23 23 23 21 21 22 22 22 21
3 2 3 3 3 3 5 2 4 5 6 8 6 8 7 7 7 6 4 2 1 3 5 4 4 5 8 11 11 13 17 20 22 23 24 25 25 25 24 21 21 21 20 22
4 8 5 2 1 2 3 4 7 7 7 8 7 6 7 8 7 6 5 6 7 6 3 4 5 8 12 12 12 15 17 20 21 22 24 25 25 25 27 24 18 19 19 13
5 6 5 5 8 5 8 9 8 9 8 8 8 6 5 5 6 7 6 9 6 3 4 5 6 10 14 16 17 17 19 20 22 25 26 27 27 27 26 22 21 18 17 14
Wind_Direction
28 105 187 184 151 119 132 119 149 205 323 200 230 264 277 278 264 280 289 297 297 293 299 311 300 274 248 239 236 232 231 232 229 219 215 220 225 228 231 233 242 238 236 237
54 200 194 120 123 116 115 120 172 90 17 144 1 283 267 280 283 316 301 316 316 337 332 354 1 357 261 242 238 235 234 234 232 227 218 218 225 232 234 238 239 242 239 240
151 204 139 118 133 126 126 148 175 156 94 63 344 307 321 10 358 13 26 21 20 360 13 5 33 40 40 31 241 239 236 237 238 235 225 222 228 233 233 235 236 243 244 246
174 134 136 122 172 133 154 188 131 128 99 214 22 269 302 348 40 36 27 33 24 12 16 28 33 45 42 38 44 173 231 234 237 239 233 224 221 229 234 235 238 243 252 253
213 160 139 140 189 160 175 122 122 104 96 90 330 76 268 335 75 29 18 28 35 24 34 43 48 57 53 52 51 53 58 67 234 232 235 235 231 235 241 247 253 252 252 256
115 11 140 164 84 85 149 85 52 61 89 356 249 166 281 212 148 97 15 32 30 36 45 55 66 64 59 57 58 58 58 59 65 191 223 236 246 248 250 252 255 258 255 258
83 174 285 133 85 30 92 103 45 5 3 217 325 135 241 233 56 143 143 88 45 47 60 52 47 49 53 53 55 58 58 55 54 62 79 245 261 264 268 273 276 276 275 269
148 201 173 195 170 165 184 163 153 189 193 218 88 222 245 333 106 123 126 75 74 66 54 51 46 53 55 55 56 57 57 57 55 56 55 51 25 320 296 292 288 285 283 283
141 211 50 99 132 153 190 196 147 106 24 67 205 272 290 112 102 138 113 99 78 64 56 49 50 58 60 60 59 60 59 57 53 51 48 46 43 37 23 2 340 322 309 301
199 111 359 140 124 48 164 156 81 9 129 231 260 270 217 173 176 184 156 117 95 77 57 48 47 59 65 64 61 59 56 54 51 49 46 41 36 29 19 7 354 341 330 321
140 104 132 131 216 163 123 181 65 118 140 164 161 250 217 179 166 164 165 134 113 97 80 67 63 69 69 65 59 55 51 47 45 42 38 35 32 26 18 9 358 346 334 324
191 119 157 195 278 246 203 180 155 146 219 253 147 266 345 151 165 160 157 139 118 113 112 96 82 70 62 58 54 49 45 41 35 31 28 24 18 14 10 7 3 355 345 333
181 189 82 9 343 344 201 192 145 112 100 195 144 252 18 141 157 175 151 144 135 128 120 104 77 65 62 56 50 44 38 36 32 25 20 16 12 10 3 357 352 349 344 341
100 145 184 208 188 132 183 179 178 146 171 162 224 147 165 188 169 177 166 156 147 142 131 113 86 72 69 63 54 46 40 35 31 28 24 20 14 8 360 354 350 347 344 340
155 180 126 41 93 125 169 175 173 195 214 185 223 184 185 189 187 185 171 156 150 162 158 145 130 115 91 66 49 42 37 32 27 23 20 16 10 5 359 355 351 347 344 342
17 155 119 161 116 67 175 205 195 210 196 163 149 216 191 166 130 156 171 165 171 177 175 159 136 118 102 75 51 34 25 19 14 13 12 8 4 0 357 352 350 346 343 339
83 129 137 210 146 96 294 217 197 191 181 189 198 180 139 144 172 183 178 176 179 173 176 171 158 138 87 39 23 19 14 8 7 3 359 356 353 350 348 346 344 343 342 339
119 89 51 138 122 208 250 22 203 182 185 184 107 160 167 175 165 158 173 163 167 170 163 154 146 112 57 17 6 1 1 358 354 351 350 348 345 343 342 342 342 341 338 335
144 128 115 163 201 294 266 195 156 173 234 203 168 171 153 109 102 151 151 140 158 162 162 163 142 54 9 0 351 344 344 342 342 340 336 336 336 334 335 335 335 335 334 331
113 124 135 138 154 204 242 207 195 152 281 181 178 172 153 144 160 213 163 140 142 163 168 160 137 336 337 339 329 330 331 333 333 331 328 327 326 326 325 324 324 327 329 324
154 164 182 159 189 283 231 192 157 108 237 217 149 148 147 147 162 138 135 132 159 169 166 179 226 270 313 315 315 320 321 325 319 320 322 323 323 322 324 322 323 324 328 326
158 157 168 124 129 261 161 97 165 183 103 142 118 123 118 125 129 124 139 143 143 176 189 242 276 293 313 317 319 319 313 315 317 318 321 322 324 324 322 314 313 313 320 321
206 185 175 179 203 331 188 178 164 145 134 150 124 134 132 126 126 128 127 163 313 279 272 292 274 286 314 335 327 315 318 317 317 317 318 319 318 319 319 314 311 312 316 313
257 230 156 128 214 210 182 91 152 161 136 138 131 136 135 134 147 153 162 191 219 8 355 355 335 333 326 329 316 316 318 316 314 314 316 319 319 319 318 310 300 307 311 314
192 142 163 295 112 97 218 208 166 130 122 120 133 141 144 146 149 139 135 131 114 95 50 358 330 317 318 324 319 318 314 311 308 309 315 319 318 317 314 311 294 294 303 305
188 166 176 214 176 169 198 184 163 149 160 155 141 136 131 136 132 127 129 133 117 61 358 353 339 322 316 315 313 314 314 310 309 310 315 317 317 316 314 307 300 296 294 277
Height
805 814 824 817 819 820 833 833 835 835 836 836 839 841 831 825 827 826 824 823 822 822 816 814 813 814 815 817 821 822 826 829 835 839 841 844 845 849 851 853 857 859 861 863
814 818 812 818 821 826 829 833 837 836 839 837 842 836 829 824 824 825 824 824 821 822 818 813 811 810 810 811 815 818 821 825 828 831 834 838 842 843 846 848 849 852 856 858
812 806 812 814 822 826 831 832 838 833 840 844 843 839 833 825 825 827 827 825 825 824 821 818 814 813 811 810 810 813 816 820 824 828 831 835 838 840 843 843 844 845 848 852
806 811 811 819 825 824 832 829 833 839 844 852 849 855 837 834 826 831 830 828 827 826 823 820 819 815 814 813 811 810 812 815 819 824 828 829 832 834 836 839 841 843 844 846
808 813 813 816 814 819 824 831 835 842 855 852 852 858 836 835 826 831 834 831 828 827 826 823 821 819 817 814 813 812 811 813 816 820 824 827 829 831 833 836 838 840 841 842
805 806 806 808 818 815 830 835 847 859 861 863 856 857 844 833 824 830 834 833 831 829 828 826 824 822 820 818 815 815 815 815 815 817 821 825 828 830 832 834 835 836 837 838
808 808 808 808 819 822 822 833 860 863 873 862 868 862 839 826 826 831 833 831 831 831 829 827 825 823 823 822 820 819 819 818 819 819 822 825 827 828 829 831 832 832 833 833
813 819 810 806 807 816 827 822 842 859 870 857 865 854 833 833 831 832 832 831 832 831 831 831 829 827 825 825 824 823 822 821 822 823 823 825 825 827 828 829 829 830 829 829
803 804 803 802 802 802 820 826 826 863 930 881 854 842 833 834 836 834 831 832 834 834 833 832 830 828 827 828 828 826 826 826 825 826 826 826 826 826 826 826 826 826 826 825
783 801 808 806 803 807 807 817 831 853 875 872 848 843 830 836 835 833 832 833 834 834 835 834 833 832 831 831 831 829 828 828 829 828 828 828 828 827 826 825 824 823 822 821
781 788 812 807 806 806 812 814 823 824 839 861 872 834 818 813 821 829 830 830 832 834 836 836 836 833 831 832 831 831 830 830 829 829 829 829 827 827 825 824 823 821 820 817
776 792 813 804 800 802 799 803 806 820 840 859 849 826 811 813 823 825 826 829 832 834 836 836 836 834 832 832 831 831 830 829 830 830 829 827 827 825 824 823 821 820 817 815
773 792 835 812 805 806 802 803 803 812 825 846 835 821 821 820 826 825 826 829 831 833 835 836 835 834 834 834 833 833 833 832 831 830 830 829 827 824 823 821 819 816 814 812
764 782 780 777 776 791 798 799 802 796 817 817 813 816 819 826 823 824 825 827 830 833 834 835 834 835 836 835 835 835 835 834 834 833 832 830 828 826 825 823 821 818 814 810
767 780 782 792 786 782 786 791 800 795 783 796 783 801 800 811 815 819 823 828 830 832 834 835 835 835 836 836 836 836 835 834 833 833 831 829 828 826 825 822 819 816 813 809
775 788 784 798 794 792 784 789 786 778 789 792 799 795 791 801 813 820 821 826 828 831 833 834 834 834 835 835 834 834 833 832 832 831 829 827 824 823 821 819 816 812 809 806
780 784 789 783 797 796 788 779 787 783 789 779 790 786 797 804 807 811 815 819 823 826 830 832 832 832 831 831 831 830 829 829 828 826 825 823 820 818 816 814 810 806 803 800
784 787 790 801 792 782 767 785 782 779 782 780 782 786 786 791 798 805 811 813 820 823 824 826 827 828 828 828 828 828 827 825 825 823 822 820 817 815 812 808 805 802 798 794
774 786 805 793 811 793 776 781 785 776 773 776 780 786 790 800 803 807 809 811 816 819 820 822 823 825 826 826 826 826 825 825 823 821 820 818 815 812 808 805 801 798 794 790
778 776 782 812 797 799 771 776 775 772 782 770 773 782 793 798 805 806 808 811 815 817 818 820 822 823 824 825 825 825 825 824 823 821 819 817 814 810 808 804 801 797 794 788
778 782 774 799 796 796 782 776 775 791 780 786 777 783 792 794 796 801 806 810 812 814 816 819 821 822 823 823 823 824 824 824 822 820 816 814 811 808 804 799 798 794 791 786
766 771 782 808 795 785 774 779 771 769 778 778 782 785 790 794 798 801 805 808 811 813 815 818 819 821 822 822 822 822 822 820 818 815 812 809 807 804 801 797 795 792 788 783
759 757 773 770 764 763 768 761 763 766 771 778 781 786 789 794 798 801 804 806 809 811 814 816 818 819 819 820 820 819 818 815 813 810 807 804 802 799 797 794 790 787 784 779
766 763 760 760 764 761 765 765 765 766 769 775 780 785 789 794 799 802 805 807 809 811 812 814 814 815 817 817 816 815 813 811 809 805 802 798 795 792 790 788 785 781 777 774
760 762 771 772 765 766 765 763 765 767 770 775 779 783 787 791 796 799 804 806 808 809 811 813 814 814 813 812 812 812 809 806 803 800 797 793 790 787 783 781 778 775 772 770
755 755 752 755 754 752 753 758 762 765 769 773 776 782 784 786 791 796 801 804 806 808 809 810 810 809 808 809 809 807 803 800 797 793 790 787 784 781 778 775 770 770 767 766